Wetbulb
59.75 59.71 59.83 59.70 59.42 60.96 61.79 61.56 61.73 62.33 62.65 62.70 63.03 62.60 62.04 61.67 61.39 56.03 51.12 55.28 56.15 61.87 60.78 54.21 51.96 50.85 50.76 48.11 47.22 43.64 38.59 35.53 38.00 36.97 39.97 42.01 41.76 42.19 45.38 50.36 50.12 52.59 52.86 54.91 60.34
59.16 59.20 59.31 59.52 59.19 59.10 61.53 61.30 61.48 61.92 62.32 62.53 62.81 62.20 61.78 61.43 54.04 51.40 56.90 60.98 62.15 61.59 53.67 49.61 48.08 49.21 46.59 46.78 45.57 41.68 37.70 39.53 42.70 40.31 40.53 42.66 42.80 43.77 45.14 47.52 48.93 48.94 55.25 59.16 60.88
58.46 58.73 58.55 58.67 58.47 57.68 58.44 60.62 60.70 61.32 62.01 62.14 62.37 61.39 60.53 56.05 49.99 50.25 59.66 60.86 61.95 59.17 55.24 52.71 51.32 48.84 46.51 46.02 43.08 41.52 40.03 42.20 43.27 42.25 43.31 42.80 41.07 44.47 45.42 43.97 48.90 49.96 55.09 58.09 59.58
57.34 57.80 57.51 57.34 57.39 57.43 56.97 56.42 60.53 60.84 61.59 61.73 61.73 60.61 59.31 52.42 42.34 50.98 60.75 62.70 61.67 55.69 53.63 51.57 51.12 47.44 46.15 44.90 45.21 41.22 43.28 43.11 44.61 43.61 43.19 42.01 43.35 43.11 45.49 45.44 48.71 52.66 57.82 58.32 58.63
56.60 56.96 57.02 57.20 57.12 57.08 57.83 56.96 60.31 60.49 61.08 61.38 61.22 60.14 55.05 47.95 47.61 55.25 60.92 61.36 55.30 53.04 51.14 49.81 49.79 48.63 45.88 45.63 45.35 42.77 42.83 43.13 43.88 42.71 42.15 43.31 41.32 42.21 43.76 44.76 52.19 56.47 58.42 58.18 58.44
54.90 56.45 56.41 57.11 57.09 57.28 56.77 57.95 59.64 60.11 60.85 61.27 60.82 58.81 51.17 44.93 54.11 57.28 56.93 52.81 52.22 51.17 52.22 51.54 51.31 51.17 47.40 46.15 44.48 44.17 44.35 42.95 43.31 42.14 41.99 41.96 38.97 41.53 42.60 52.27 54.18 56.78 56.98 58.22 58.55
54.19 54.94 55.61 56.23 56.58 56.90 56.65 57.73 59.41 59.92 60.47 61.11 60.30 55.16 49.42 47.95 55.26 54.10 53.48 52.09 52.62 52.85 50.45 51.65 51.15 50.25 47.71 45.78 45.50 46.09 43.33 43.69 42.67 42.01 41.16 41.02 37.71 39.98 41.22 52.08 53.24 54.50 56.03 56.98 58.17
53.23 53.46 54.25 55.51 56.19 56.77 56.39 58.61 59.21 59.65 59.86 60.49 59.12 52.87 46.30 54.65 53.75 53.08 53.45 52.73 54.70 54.59 52.68 52.80 52.89 48.47 46.72 46.69 44.57 45.76 43.75 38.41 41.73 41.76 40.90 40.22 36.82 40.61 44.92 51.19 51.62 52.08 53.52 55.55 56.22
52.31 52.94 53.67 55.20 55.73 56.47 56.31 58.55 58.49 59.38 60.13 59.77 53.35 50.38 44.19 57.19 51.35 53.15 52.68 50.52 52.87 53.28 53.45 54.01 51.58 47.02 47.92 44.32 42.26 41.00 39.30 37.21 41.09 41.79 39.39 37.96 37.27 40.52 45.03 49.90 49.48 50.83 51.09 53.70 55.14
52.12 51.77 52.47 54.83 55.24 55.50 56.26 58.17 58.37 59.12 58.76 55.91 53.48 46.35 49.83 47.37 51.39 52.97 53.85 53.63 50.98 50.71 50.16 49.37 47.29 43.14 42.98 43.79 36.73 37.02 38.04 34.78 39.33 40.32 37.91 34.97 37.07 38.12 39.49 48.79 49.51 50.52 50.55 51.88 53.71
51.57 51.53 51.66 54.27 54.83 55.33 55.38 55.22 51.10 50.84 51.64 46.50 46.41 42.80 47.16 51.31 53.11 51.43 52.83 51.31 50.84 48.49 42.99 45.79 42.59 40.17 42.52 45.22 43.97 42.86 40.41 39.48 36.45 39.97 37.60 36.59 38.15 40.86 38.78 37.98 45.48 48.62 50.36 51.42 53.18
51.50 51.37 51.34 53.58 53.84 54.77 54.25 50.83 51.14 52.49 43.44 48.71 46.64 46.37 50.40 51.53 47.36 49.14 52.88 46.83 45.74 40.33 44.33 42.40 40.00 44.67 44.59 44.99 40.73 39.24 38.20 38.25 37.69 38.66 36.94 36.52 36.78 39.42 36.95 38.54 43.31 47.26 47.64 49.53 49.58
50.88 50.51 50.48 52.28 52.97 52.03 50.99 51.64 55.16 52.67 42.21 44.47 44.86 46.63 48.55 49.78 46.67 47.50 50.03 47.57 44.11 41.17 41.58 39.82 42.27 44.96 43.48 41.49 38.14 37.77 37.55 37.67 35.45 36.69 36.49 34.67 35.82 35.20 36.94 36.28 37.99 38.90 41.95 45.25 48.82
49.38 49.30 50.26 51.97 47.07 48.55 49.12 53.87 54.32 51.37 35.29 38.62 40.99 43.21 45.68 47.58 45.25 50.47 50.27 46.44 42.82 41.29 42.09 41.99 45.04 42.45 41.48 40.11 41.31 36.04 40.52 38.38 35.38 34.67 32.49 33.95 30.56 34.68 35.58 37.43 36.41 39.10 37.67 39.77 39.44
48.70 48.59 50.06 51.91 49.06 46.71 52.06 55.01 53.16 49.28 25.21 38.01 40.42 47.20 45.49 42.32 45.15 45.88 48.92 45.55 40.28 41.08 41.74 38.78 41.47 41.06 38.86 39.78 41.94 38.97 39.86 37.22 36.01 32.86 31.01 33.64 26.60 32.14 30.16 34.60 37.03 37.91 37.95 39.41 39.50
48.05 48.16 49.51 49.92 49.08 50.20 54.84 52.11 49.83 32.53 24.44 33.77 38.83 39.01 39.13 39.38 39.94 45.23 43.77 45.92 44.89 40.37 39.65 38.30 42.44 43.60 42.29 42.88 42.37 40.54 38.31 37.08 35.95 33.71 26.88 31.72 28.72 30.76 33.89 32.97 37.06 39.84 40.44 40.54 38.71
47.71 47.85 47.61 50.31 43.19 49.87 53.33 47.50 32.38 28.81 33.86 30.97 34.37 38.70 37.21 36.57 39.54 41.13 39.35 37.30 36.53 32.69 33.08 36.56 38.37 39.81 43.20 38.72 39.84 38.26 35.97 28.06 27.05 26.20 25.77 29.04 27.09 34.25 35.51 34.82 38.72 41.90 41.77 40.34 39.24
46.68 47.28 47.16 48.05 50.45 49.74 49.36 39.85 28.42 30.70 31.56 33.82 37.03 38.13 34.50 36.81 37.10 39.07 37.61 35.07 37.48 33.78 33.77 31.93 30.06 36.50 41.22 39.85 36.45 35.97 36.42 29.11 22.62 22.15 23.94 26.40 26.33 33.75 35.60 35.72 36.02 36.22 36.30 36.23 36.75
46.46 43.65 45.07 47.38 50.28 48.53 43.54 32.38 31.36 31.76 32.39 33.06 36.83 33.55 32.34 34.82 35.54 36.69 36.24 35.71 37.55 35.19 31.75 30.48 31.17 37.96 39.09 40.77 40.01 34.68 32.95 35.19 27.03 20.43 23.09 26.78 28.85 33.59 33.26 34.45 35.02 36.09 35.79 36.49 36.74
39.93 40.76 43.78 50.62 50.14 45.32 39.24 33.75 30.36 34.17 35.85 37.33 32.06 34.31 30.17 32.27 32.15 32.59 34.70 37.94 37.13 37.01 36.41 33.34 27.79 35.05 36.66 40.14 39.70 37.77 39.28 31.34 29.03 20.53 18.28 22.12 23.46 32.22 32.62 34.40 34.87 35.25 36.66 38.13 37.38
39.74 37.94 43.81 49.64 49.06 41.53 32.41 33.14 32.96 37.50 39.41 34.68 30.51 29.94 31.84 31.07 30.22 31.38 33.33 34.04 38.02 36.64 38.21 34.73 31.20 29.07 34.91 35.17 34.80 34.57 33.97 32.55 32.43 26.97 21.36 17.86 24.34 31.03 36.34 36.62 36.98 38.01 39.25 39.11 37.14
36.43 32.60 42.71 47.34 34.38 33.18 34.59 35.20 38.14 36.67 37.22 34.05 33.90 31.72 32.76 33.24 29.15 30.97 31.18 33.66 40.60 39.51 34.18 36.32 31.83 25.99 28.52 32.25 36.38 36.66 34.10 33.89 30.35 24.73 24.40 24.20 25.14 31.69 33.25 33.29 35.13 36.27 37.04 36.52 37.68
32.71 32.82 42.10 44.24 30.23 31.22 38.03 36.27 37.03 35.49 33.43 33.52 32.23 33.58 36.23 33.75 29.99 32.35 32.06 36.78 39.97 38.67 35.86 35.73 29.70 24.35 28.36 32.24 32.18 33.44 33.31 36.88 34.14 29.65 27.76 23.64 26.94 32.93 32.63 33.36 34.94 35.80 37.56 38.04 38.54
34.14 26.98 35.21 37.14 33.57 34.94 34.68 34.26 32.77 37.93 34.58 34.68 33.47 36.50 35.19 32.98 33.03 31.82 32.63 35.49 38.88 39.46 41.27 40.16 30.92 28.23 25.03 26.71 31.38 28.04 34.28 32.95 34.59 28.53 28.13 28.18 27.93 35.91 38.15 35.28 35.34 35.63 37.59 38.09 38.49
33.10 29.23 30.31 29.45 30.87 35.02 38.30 35.53 32.53 31.76 34.54 35.29 31.84 35.13 33.54 29.64 30.81 29.46 31.99 32.87 35.54 39.66 37.92 36.30 27.11 29.16 30.64 31.57 32.08 30.75 31.56 32.97 31.35 33.06 28.76 32.92 31.01 33.13 36.41 36.59 36.59 35.81 37.40 37.50 38.12
30.75 28.96 32.21 30.15 32.47 34.76 37.00 34.27 33.44 33.23 33.24 31.73 32.61 34.83 34.19 31.12 32.65 28.53 31.69 32.11 31.78 32.98 36.12 33.31 26.30 30.17 26.95 29.97 30.40 29.65 31.35 33.86 33.34 32.95 33.00 32.85 31.20 33.77 34.48 36.86 36.24 37.06 37.31 37.47 38.50
36.33 35.62 32.25 30.67 31.09 32.43 34.07 34.77 34.49 36.40 36.85 36.26 35.45 34.14 31.90 33.51 37.33 38.44 39.41 38.45 36.63 35.32 32.77 34.09 28.12 26.60 21.51 28.50 30.17 26.66 30.70 32.83 33.54 32.71 35.50 31.10 35.70 34.62 34.75 36.13 37.37 38.19 37.79 38.40 39.17
MSLP
1008.06 1008.60 1009.08 1009.42 1009.95 1010.68 1010.82 1011.10 1011.47 1012.07 1012.70 1013.18 1013.71 1014.32 1015.11 1015.61 1016.30 1016.77 1016.59 1015.63 1015.35 1015.16 1015.24 1015.11 1015.34 1015.39 1015.91 1016.16 1016.11 1016.50 1017.42 1017.86 1017.50 1017.49 1016.75 1016.77 1017.07 1017.48 1017.74 1018.29 1018.72 1018.80 1019.08 1019.12 1019.97
1007.44 1007.97 1008.65 1009.21 1009.66 1010.08 1010.17 1010.68 1011.09 1011.73 1012.32 1012.71 1013.43 1014.31 1014.96 1015.53 1016.11 1016.03 1015.16 1014.75 1014.78 1014.83 1015.01 1014.79 1015.47 1015.68 1016.10 1016.14 1016.48 1016.58 1017.37 1017.12 1016.45 1016.31 1016.32 1016.45 1016.67 1017.31 1017.82 1018.49 1018.86 1019.15 1019.38 1019.52 1020.18
1007.10 1007.58 1008.24 1008.88 1009.26 1009.31 1009.89 1010.48 1010.69 1011.32 1011.91 1012.38 1013.06 1013.99 1014.85 1015.37 1015.95 1014.87 1014.21 1014.55 1014.86 1014.81 1015.16 1015.22 1015.16 1015.48 1016.18 1016.07 1016.71 1016.93 1016.88 1016.46 1015.92 1015.81 1015.89 1016.39 1016.74 1017.04 1017.65 1018.46 1018.14 1018.77 1019.49 1019.93 1020.34
1007.00 1007.55 1007.92 1008.65 1008.80 1008.97 1009.37 1010.13 1010.44 1010.82 1011.47 1011.99 1012.84 1013.59 1014.70 1015.07 1015.04 1013.60 1013.44 1013.92 1014.64 1015.19 1015.20 1015.28 1015.32 1015.83 1016.26 1016.50 1017.01 1017.01 1016.85 1016.62 1015.98 1015.84 1016.09 1016.32 1016.49 1017.03 1017.37 1017.08 1016.93 1017.77 1018.46 1019.48 1020.06
1006.76 1007.16 1007.53 1007.96 1008.21 1008.38 1008.90 1009.84 1009.89 1010.33 1010.99 1011.75 1012.61 1013.22 1014.43 1014.87 1014.14 1013.36 1013.42 1013.98 1014.65 1014.92 1015.04 1015.03 1015.20 1015.68 1016.16 1016.38 1016.70 1016.87 1017.41 1016.94 1016.50 1016.38 1016.19 1016.17 1016.47 1016.82 1017.15 1017.18 1017.17 1017.96 1018.95 1019.33 1019.85
1006.37 1006.66 1007.03 1007.44 1007.70 1008.17 1008.18 1009.32 1009.09 1009.76 1010.59 1011.37 1012.40 1013.11 1013.69 1014.11 1013.53 1013.44 1013.93 1014.25 1014.25 1014.96 1015.22 1015.15 1015.22 1015.29 1016.13 1016.42 1016.91 1017.67 1017.91 1017.61 1016.66 1016.61 1016.52 1016.33 1016.78 1016.95 1016.99 1017.39 1017.99 1018.37 1018.88 1019.32 1019.66
1006.09 1006.34 1006.79 1006.88 1007.31 1007.03 1008.35 1008.42 1008.49 1009.21 1010.21 1011.15 1012.14 1012.88 1013.18 1013.28 1013.38 1013.75 1013.98 1014.43 1014.75 1014.99 1015.40 1015.68 1015.33 1015.62 1016.64 1017.38 1017.82 1017.90 1018.24 1017.81 1016.95 1016.87 1016.68 1016.42 1016.90 1017.01 1017.10 1017.64 1018.44 1018.86 1019.09 1019.47 1019.74
1005.85 1006.15 1006.47 1006.87 1006.92 1007.21 1007.62 1007.41 1007.99 1008.94 1009.92 1010.98 1011.63 1011.88 1013.08 1013.09 1013.42 1013.89 1014.39 1014.83 1015.12 1015.14 1015.47 1015.54 1015.41 1016.89 1017.20 1018.08 1018.15 1018.32 1018.54 1018.70 1017.42 1017.18 1016.58 1016.67 1016.65 1016.59 1017.37 1017.87 1018.76 1019.13 1019.48 1019.50 1019.66
1005.65 1005.75 1006.22 1006.23 1006.50 1006.67 1006.79 1006.90 1007.60 1008.54 1009.77 1010.75 1012.20 1011.99 1012.46 1013.06 1013.78 1014.19 1014.27 1014.92 1015.25 1015.46 1015.63 1015.88 1016.20 1017.92 1018.50 1018.57 1019.21 1018.91 1018.59 1018.88 1017.99 1017.32 1016.96 1016.90 1016.86 1016.72 1017.43 1017.92 1018.77 1019.11 1019.50 1019.47 1019.69
1005.29 1005.44 1005.62 1005.52 1005.93 1006.00 1006.54 1006.31 1007.30 1008.78 1009.86 1011.11 1011.36 1011.22 1012.76 1012.46 1013.20 1014.04 1014.38 1014.70 1015.23 1015.51 1016.35 1016.71 1017.34 1018.19 1018.53 1018.06 1017.29 1018.86 1018.99 1018.68 1018.19 1017.55 1017.23 1017.09 1016.87 1016.91 1017.50 1017.94 1018.14 1018.89 1019.23 1019.32 1019.42
1005.05 1005.17 1004.96 1004.86 1005.26 1005.50 1005.72 1005.79 1007.14 1008.42 1008.25 1007.78 1008.25 1009.75 1010.69 1012.12 1013.05 1014.01 1014.40 1014.75 1015.38 1015.55 1016.29 1017.10 1017.38 1016.18 1017.19 1017.72 1017.94 1018.51 1018.71 1018.57 1018.28 1017.58 1017.46 1017.10 1016.87 1016.81 1017.24 1018.20 1018.54 1018.62 1018.63 1018.74 1018.84
1004.74 1004.95 1004.91 1004.93 1004.89 1005.23 1005.78 1004.87 1004.05 1004.25 1006.55 1008.06 1009.82 1010.28 1010.87 1010.90 1013.07 1014.19 1014.05 1014.88 1015.53 1015.58 1016.40 1017.35 1016.14 1016.61 1017.36 1017.83 1018.17 1018.53 1018.68 1018.71 1018.70 1018.32 1017.94 1017.34 1016.87 1016.82 1017.30 1017.29 1017.58 1017.75 1018.17 1018.15 1018.51
1004.35 1004.78 1004.75 1004.97 1005.46 1005.50 1005.15 1005.28 1004.20 1004.97 1007.38 1009.17 1009.43 1009.48 1010.66 1011.07 1012.57 1013.60 1014.05 1014.50 1015.19 1015.83 1016.08 1016.41 1016.20 1016.60 1017.02 1017.67 1018.30 1018.56 1018.34 1019.01 1019.21 1018.73 1018.35 1018.07 1017.13 1016.72 1016.60 1016.76 1017.17 1017.41 1017.45 1017.74 1017.70
1004.13 1004.37 1004.66 1005.01 1005.69 1004.80 1004.57 1005.26 1004.51 1005.66 1007.84 1008.98 1009.56 1009.86 1010.60 1011.02 1012.62 1013.25 1013.79 1014.40 1015.34 1015.73 1016.57 1016.83 1016.42 1016.60 1016.97 1017.43 1017.93 1018.67 1019.15 1019.67 1020.09 1019.83 1019.23 1018.90 1016.89 1016.06 1016.03 1016.03 1016.25 1016.43 1016.88 1016.90 1017.22
1004.04 1004.14 1004.34 1004.29 1003.60 1004.02 1003.38 1004.18 1004.79 1005.85 1007.04 1009.07 1009.38 1009.47 1009.87 1010.89 1011.82 1013.37 1013.34 1014.05 1015.18 1015.48 1016.30 1016.67 1016.55 1016.53 1016.85 1017.29 1018.47 1018.89 1019.37 1020.49 1021.03 1021.35 1020.71 1019.59 1018.82 1015.39 1015.71 1015.30 1015.47 1015.51 1015.90 1016.11 1016.25
1003.70 1003.96 1004.18 1003.98 1004.32 1003.92 1003.72 1004.29 1005.33 1006.40 1006.93 1008.16 1008.50 1009.10 1009.98 1011.65 1012.03 1012.79 1013.43 1014.21 1015.30 1015.82 1016.49 1017.15 1017.06 1016.63 1016.67 1017.50 1018.37 1019.22 1020.09 1021.41 1022.03 1022.84 1022.02 1019.34 1018.83 1015.26 1014.60 1014.54 1014.49 1014.48 1014.59 1015.11 1015.59
1003.43 1003.67 1004.10 1003.79 1002.72 1003.56 1003.69 1004.57 1005.08 1005.01 1006.84 1008.16 1008.19 1008.93 1010.35 1011.29 1011.76 1011.87 1012.90 1014.25 1014.77 1015.91 1016.91 1017.64 1017.19 1017.33 1017.08 1018.23 1019.46 1019.63 1020.34 1022.02 1023.03 1022.96 1020.24 1018.89 1019.21 1014.65 1013.54 1013.44 1013.27 1013.39 1013.60 1014.04 1014.62
1003.30 1003.25 1002.99 1002.88 1002.88 1003.61 1002.95 1002.99 1004.19 1004.33 1005.74 1007.01 1007.92 1009.44 1010.27 1010.55 1011.68 1012.47 1013.51 1014.31 1014.92 1015.16 1016.20 1016.67 1017.85 1017.15 1016.91 1017.28 1018.29 1019.50 1019.31 1019.69 1020.80 1021.25 1020.48 1019.48 1016.83 1013.20 1012.89 1012.73 1012.80 1013.06 1013.29 1013.87 1014.68
1003.11 1003.06 1002.54 1001.94 1002.41 1002.95 1002.27 1001.08 1002.05 1002.89 1004.32 1005.80 1008.10 1008.63 1009.52 1010.26 1011.24 1012.60 1012.98 1013.30 1013.38 1013.66 1014.51 1015.68 1016.46 1016.88 1017.33 1017.22 1017.89 1019.63 1019.43 1018.90 1019.56 1020.73 1019.89 1017.98 1015.35 1013.70 1012.73 1012.72 1012.75 1013.06 1013.63 1013.53 1013.88
1003.06 1002.73 1002.05 1001.63 1002.17 1003.33 1001.53 1001.43 1001.82 1002.21 1003.38 1005.00 1005.85 1006.49 1008.09 1009.55 1010.86 1011.33 1011.98 1012.01 1012.75 1013.38 1013.46 1014.86 1016.23 1016.81 1017.23 1017.41 1017.87 1018.08 1018.62 1019.17 1019.54 1019.83 1019.13 1017.12 1015.45 1012.90 1012.47 1012.45 1012.67 1012.82 1013.13 1013.17 1013.62
1002.69 1002.70 1001.79 1001.26 1002.01 1002.58 1000.33 1001.43 1001.28 1001.90 1002.06 1003.61 1004.91 1005.63 1007.52 1008.37 1009.58 1010.68 1011.12 1011.26 1012.05 1013.11 1013.89 1014.80 1015.62 1017.41 1017.26 1017.23 1017.14 1018.46 1018.10 1018.61 1018.41 1018.00 1017.31 1016.37 1013.67 1011.54 1011.59 1011.42 1011.67 1011.57 1011.88 1012.31 1013.46
1002.36 1002.27 1001.56 1001.27 1001.71 1001.47 1000.25 1001.13 1000.95 1001.99 1001.85 1003.11 1004.19 1005.33 1006.40 1008.08 1009.48 1010.43 1010.64 1010.26 1010.83 1011.64 1013.34 1014.49 1015.52 1016.85 1016.59 1016.36 1016.48 1017.06 1017.01 1017.32 1017.34 1016.80 1016.43 1015.62 1012.43 1010.83 1010.96 1011.07 1011.14 1011.35 1011.82 1012.38 1013.36
1002.17 1002.05 1001.42 1001.11 1001.21 1001.17 1000.65 1001.05 1000.94 1001.39 1001.93 1002.81 1003.74 1004.40 1005.30 1006.98 1009.07 1009.56 1009.86 1009.89 1010.09 1011.10 1011.72 1013.13 1014.92 1016.05 1016.54 1016.44 1016.12 1015.80 1016.14 1015.94 1015.89 1015.91 1014.97 1014.27 1011.57 1010.57 1010.67 1010.70 1011.02 1011.45 1012.01 1012.61 1013.96
1002.93 1002.80 1002.22 1001.87 1002.10 1001.29 1000.88 1000.79 1000.82 1001.52 1001.78 1002.23 1003.17 1004.04 1005.51 1007.21 1007.88 1009.00 1009.84 1010.26 1010.26 1010.73 1011.46 1012.06 1013.21 1013.55 1013.38 1013.42 1014.19 1015.26 1015.12 1015.50 1016.19 1015.99 1013.96 1013.00 1011.03 1010.46 1009.80 1010.37 1010.85 1011.27 1011.98 1013.15 1014.03
1003.13 1003.38 1003.23 1002.27 1002.24 1001.29 1000.79 1000.76 1000.31 1001.25 1001.34 1001.53 1003.11 1003.22 1004.22 1006.29 1007.55 1008.27 1009.33 1009.96 1010.53 1010.73 1011.40 1011.84 1012.62 1013.52 1013.23 1013.36 1013.62 1013.77 1014.09 1014.51 1014.57 1013.93 1013.69 1011.17 1011.33 1010.73 1010.15 1009.96 1010.22 1010.58 1012.06 1013.15 1013.56
1003.44 1003.61 1003.47 1002.94 1002.22 1001.44 1000.77 1000.45 1000.07 1000.89 1001.08 1001.45 1001.72 1002.76 1003.50 1004.29 1005.07 1006.85 1007.92 1008.70 1009.54 1010.91 1011.47 1012.13 1012.95 1013.23 1013.97 1013.95 1014.22 1014.35 1013.61 1013.29 1013.11 1012.76 1011.99 1011.45 1010.09 1009.74 1009.62 1009.78 1010.15 1010.90 1012.26 1012.71 1013.02
1003.36 1003.52 1003.37 1002.59 1001.90 1001.65 1000.64 1000.27 999.42 1000.05 1001.24 1001.21 1001.74 1003.14 1003.88 1004.14 1004.98 1006.00 1006.63 1007.45 1008.43 1009.66 1011.05 1011.99 1012.93 1014.04 1015.05 1014.80 1014.61 1014.54 1012.18 1012.37 1011.79 1011.03 1010.08 1010.26 1008.44 1009.56 1009.57 1009.65 1009.51 1009.83 1011.32 1011.80 1011.80
Wind_Speed
22 21 20 20 13 22 24 22 20 19 21 21 18 17 16 13 10 4 8 7 5 3 4 4 2 4 2 2 2 3 5 3 6 6 4 4 4 2 2 6 1 4 6 4 15
21 20 21 18 15 11 24 24 21 20 21 22 19 16 14 14 4 7 6 8 7 1 3 8 7 6 2 1 2 4 4 8 5 6 5 6 6 9 5 4 1 2 5 12 15
17 20 19 19 15 10 9 18 21 21 22 23 22 20 16 7 2 8 16 11 8 4 3 4 4 6 3 3 2 0 4 3 3 3 4 6 4 5 8 4 7 9 11 13 15
14 19 16 18 17 13 12 12 23 22 22 23 22 23 18 3 10 2 15 17 11 7 6 4 4 8 6 7 1 2 5 3 3 2 5 7 7 6 7 7 5 11 19 15 16
13 17 19 18 18 15 16 17 25 24 23 25 21 23 11 6 7 4 13 14 9 6 7 6 6 6 7 7 4 4 7 9 8 4 3 7 4 5 7 5 4 13 15 17 16
6 13 15 16 19 19 11 23 23 24 24 26 25 22 7 10 2 4 9 6 5 5 2 4 5 4 5 4 5 3 3 8 5 6 3 5 1 3 3 5 7 14 16 15 16
6 7 10 16 19 16 16 17 23 24 26 28 28 11 8 7 4 8 7 3 2 4 4 1 3 5 1 6 4 3 7 8 5 3 4 2 1 8 3 7 9 10 12 11 11
7 6 7 14 18 20 14 15 25 25 29 26 26 6 6 4 8 7 6 5 5 7 6 3 11 8 6 1 5 4 5 2 4 4 1 4 10 4 6 10 9 8 8 10 10
8 5 6 13 16 17 12 17 24 26 31 27 13 8 7 9 10 7 5 6 8 5 6 5 7 5 3 7 2 1 7 9 7 6 2 4 6 5 7 9 9 9 8 9 9
7 5 6 12 15 13 12 16 23 26 23 14 7 9 7 10 7 8 5 9 6 13 6 4 5 5 4 10 17 6 7 3 11 5 2 3 8 4 5 8 13 11 9 9 10
8 6 5 10 12 11 4 7 12 18 27 8 12 5 17 10 9 8 8 7 3 3 6 3 6 17 14 17 2 9 5 12 2 5 4 8 9 12 6 3 6 10 11 11 12
9 6 5 10 13 9 5 10 26 8 14 1 15 9 5 18 11 10 13 8 8 11 8 5 13 9 14 13 8 10 12 17 5 3 3 4 12 10 5 7 11 13 10 12 7
8 5 3 7 10 5 7 11 16 13 7 11 6 12 16 12 10 13 15 8 11 12 14 4 1 13 13 14 13 8 15 9 3 1 2 4 9 8 6 5 4 7 7 8 16
6 4 4 6 1 5 6 10 12 2 6 10 6 5 10 11 7 8 5 5 2 9 13 4 4 16 15 18 16 12 7 3 6 4 9 1 11 10 7 11 9 11 9 12 11
5 5 6 13 1 9 2 16 15 4 8 13 7 10 7 4 15 10 5 4 7 9 6 4 10 18 18 17 14 3 11 8 4 3 6 9 4 5 3 11 11 12 12 14 13
7 6 4 5 5 7 13 13 11 4 7 8 9 12 14 5 3 9 5 7 4 7 5 2 4 10 9 13 14 9 10 10 7 3 5 12 7 7 12 7 7 11 13 16 12
9 8 5 5 9 7 16 12 7 8 8 9 11 25 16 11 8 12 11 9 6 7 6 2 3 2 7 15 9 8 12 3 3 4 12 5 7 19 6 10 13 17 17 14 11
7 10 7 8 6 5 9 15 6 6 7 3 16 22 10 14 4 13 15 9 7 5 5 7 7 10 7 6 7 10 5 7 8 6 2 5 13 11 10 8 7 6 6 4 9
6 2 3 4 7 5 9 12 10 11 12 13 22 15 7 7 10 11 16 13 10 9 7 7 5 4 7 6 12 6 8 2 4 2 2 6 9 10 6 9 7 10 7 11 11
3 2 4 7 10 10 11 9 6 7 17 26 14 9 15 20 12 13 19 15 10 7 4 5 5 5 5 3 2 7 10 4 1 6 5 5 7 12 8 9 10 9 12 13 8
2 3 0 5 8 10 13 3 7 14 23 13 7 8 12 16 7 14 21 3 13 13 6 2 5 2 8 11 10 5 6 1 2 4 5 2 8 9 15 11 12 14 16 12 9
2 1 2 3 5 3 11 9 6 20 2 6 7 6 14 19 6 13 16 8 21 21 14 7 5 4 9 3 10 7 7 9 7 10 5 4 9 2 8 7 6 8 6 2 5
1 2 1 2 3 2 7 7 8 18 7 6 6 5 11 15 7 7 8 7 23 21 22 10 5 4 3 7 4 12 10 19 4 3 13 6 8 2 4 5 7 7 5 5 6
1 2 2 2 0 6 5 7 8 8 5 7 9 16 14 12 1 14 11 7 16 15 13 14 6 8 10 2 10 9 20 9 16 5 4 13 4 13 15 6 6 5 4 6 6
2 1 1 1 4 3 12 13 13 10 3 7 3 17 12 8 10 6 6 5 7 10 8 9 6 4 4 3 4 8 15 20 19 22 9 18 14 6 11 5 7 4 5 6 9
1 2 0 2 0 7 11 19 23 6 9 9 14 19 9 12 11 9 10 6 7 3 12 1 3 4 2 3 4 6 10 21 21 18 18 16 19 5 4 8 6 6 7 10 11
1 2 1 3 2 5 8 14 21 13 5 8 15 10 5 7 10 12 8 9 12 13 8 12 5 4 6 3 7 5 19 19 15 10 18 21 18 2 7 9 9 8 11 13 11
Wind_Direction
221 217 215 208 213 233 222 220 214 205 204 198 184 173 169 174 155 160 223 214 188 146 155 112 135 124 58 260 130 129 72 180 194 152 226 148 148 110 95 118 286 144 153 185 135
225 217 212 210 222 251 220 217 211 204 205 194 174 165 156 156 122 227 227 212 164 177 151 150 171 131 183 143 309 101 126 211 202 184 198 188 161 158 132 131 158 68 38 123 142
216 215 215 219 212 233 245 233 212 205 202 190 166 154 142 134 116 233 207 205 172 139 156 165 114 132 192 103 45 149 177 214 249 207 168 180 173 166 126 225 205 186 157 152 160
219 215 212 227 219 225 223 292 222 203 198 183 172 149 149 152 199 208 196 178 162 165 154 152 122 138 178 156 186 76 343 313 314 172 147 172 134 173 188 219 194 172 164 156 168
225 216 217 219 221 201 212 236 218 199 192 178 162 147 143 196 245 307 169 156 147 164 186 175 138 143 173 134 118 76 337 328 325 324 256 133 188 185 216 335 107 133 162 169 174
220 211 217 224 218 205 215 226 225 194 190 168 158 150 153 205 159 142 128 127 130 148 142 145 164 134 116 117 108 89 277 294 348 335 263 147 112 179 189 115 115 152 172 175 182
191 196 217 226 223 211 225 252 213 189 181 169 154 155 164 173 127 120 104 107 127 142 109 66 111 103 92 103 105 107 21 333 349 329 285 169 76 233 140 138 150 171 176 179 186
205 214 225 215 221 214 240 237 201 186 174 163 158 128 174 125 124 111 127 69 59 66 95 66 80 78 57 301 44 84 79 256 270 322 224 134 251 235 166 147 176 180 190 182 198
206 207 238 225 222 205 242 212 194 187 165 152 157 179 141 127 145 142 115 116 102 76 66 78 75 93 39 125 98 261 206 213 275 216 277 165 252 254 173 164 189 193 196 199 204
203 218 247 224 216 204 239 210 190 169 158 147 180 92 170 172 131 129 123 131 108 114 78 56 75 120 163 179 198 153 184 195 227 231 187 224 261 269 207 185 195 193 200 204 206
217 219 259 224 220 197 227 186 174 186 167 152 154 64 125 125 110 149 159 93 136 134 148 162 185 200 180 194 159 180 173 226 245 264 200 220 235 243 190 254 213 209 204 208 214
209 217 246 239 223 213 221 217 209 123 121 78 142 100 113 135 127 144 151 139 170 170 109 143 220 182 150 183 143 163 187 207 251 263 230 220 252 249 176 217 217 214 211 211 215
196 209 286 265 218 252 220 211 135 127 95 158 121 131 154 127 130 149 157 143 165 172 173 172 285 138 156 173 157 184 189 187 243 282 180 313 263 248 229 222 218 225 216 210 219
205 244 291 237 142 233 208 180 144 122 113 151 170 162 150 134 109 141 146 120 104 168 170 246 171 157 162 188 187 196 173 92 27 338 232 354 265 248 220 233 202 225 209 225 216
204 233 251 223 32 204 141 154 145 37 154 156 140 153 139 153 129 168 153 88 140 132 152 154 186 173 181 183 177 209 120 93 87 28 10 238 267 233 146 240 226 227 223 229 221
209 238 253 243 215 259 156 128 130 153 156 146 144 155 136 168 108 128 148 79 70 87 61 89 298 179 180 166 167 115 84 53 52 75 243 223 207 225 218 193 223 229 226 224 219
224 234 243 255 212 213 158 148 145 203 145 149 159 158 138 150 125 155 160 145 145 127 153 133 142 340 145 122 84 115 146 113 156 192 235 201 206 248 284 219 199 221 224 219 216
228 246 244 238 220 166 187 155 184 169 137 169 147 150 142 137 87 154 157 164 192 122 126 155 191 175 182 181 158 163 187 152 179 193 289 125 229 236 231 227 228 261 257 252 206
277 256 258 238 210 196 215 202 176 160 138 138 137 142 124 141 130 158 191 188 182 168 142 164 172 139 202 132 141 161 214 87 101 72 73 202 268 306 248 272 244 241 251 235 220
158 217 227 169 176 235 194 185 129 136 127 143 148 162 159 164 150 173 173 196 184 176 88 198 126 200 168 96 248 182 152 188 305 177 231 252 272 230 202 231 244 249 237 246 235
141 176 312 237 141 231 189 150 109 153 139 144 139 126 166 166 138 179 179 208 171 171 134 71 100 144 135 206 175 143 180 173 254 183 179 195 253 212 209 219 219 224 229 227 213
122 214 18 222 172 236 182 140 122 157 108 111 97 103 162 158 133 172 189 174 183 162 176 178 120 162 191 149 192 182 175 171 189 210 206 137 275 204 242 299 280 276 301 283 180
49 312 357 92 195 213 148 133 143 163 137 149 123 147 150 155 140 181 161 227 161 172 163 163 197 110 81 328 312 205 199 203 271 345 215 145 245 199 229 270 269 270 255 204 174
126 57 11 21 229 170 179 161 120 184 120 88 115 116 122 159 63 177 166 190 179 175 170 151 170 181 186 219 137 190 195 193 217 251 239 248 316 300 291 276 282 257 224 199 206
22 78 286 270 158 238 170 161 140 162 176 133 88 155 149 141 175 170 151 126 173 175 171 171 199 165 218 67 136 167 182 197 209 222 213 250 251 250 272 289 264 223 184 196 199
129 141 240 266 101 168 200 182 165 146 149 184 153 164 153 151 181 151 131 155 163 101 188 113 277 118 47 37 221 198 196 199 215 222 239 244 257 231 263 314 181 219 206 207 210
57 87 77 343 9 167 187 193 179 133 8 143 135 142 144 154 135 147 152 138 149 161 169 200 133 99 228 116 86 304 216 217 220 207 226 235 242 255 264 259 264 268 198 210 212